TimeEDT,TemperatureF,Dew PointF,Humidity,Sea Level PressureIn,VisibilityMPH,Wind Direction,Wind SpeedMPH,Gust SpeedMPH,PrecipitationIn,Events,Conditions,WindDirDegrees,DateUTC
12:15 AM,59.0,55.4,88,30.06,10.0,South,15.0,19.6,N/A,,Clear,190,2013-05-23 04:15:00
12:35 AM,60.8,55.4,82,30.06,10.0,SSW,12.7,18.4,N/A,,Mostly Cloudy,210,2013-05-23 04:35:00
12:55 AM,60.8,53.6,77,30.05,10.0,SW,12.7,20.7,N/A,,Mostly Cloudy,220,2013-05-23 04:55:00
1:15 AM,60.8,53.6,77,30.06,10.0,WSW,16.1,21.9,N/A,,Mostly Cloudy,240,2013-05-23 05:15:00
1:35 AM,59.0,55.4,88,30.05,10.0,WSW,15.0,-,N/A,,Mostly Cloudy,250,2013-05-23 05:35:00
1:55 AM,59.0,55.4,88,30.04,10.0,WSW,13.8,-,N/A,,Mostly Cloudy,250,2013-05-23 05:55:00
2:15 AM,59.0,55.4,88,30.04,10.0,WSW,13.8,-,N/A,,Overcast,250,2013-05-23 06:15:00
2:35 AM,59.0,55.4,88,30.04,10.0,West,13.8,-,N/A,,Overcast,260,2013-05-23 06:35:00
2:55 AM,59.0,55.4,88,30.03,10.0,West,11.5,-,N/A,,Overcast,260,2013-05-23 06:55:00
3:15 AM,57.2,55.4,94,30.03,10.0,WSW,11.5,-,N/A,,Light Drizzle,250,2013-05-23 07:15:00
3:35 AM,59.0,53.6,82,30.02,10.0,SW,8.1,-,N/A,,Overcast,220,2013-05-23 07:35:00
3:55 AM,60.8,51.8,72,30.02,10.0,SW,9.2,-,N/A,,Overcast,220,2013-05-23 07:55:00
4:15 AM,60.8,51.8,72,30.03,10.0,SW,6.9,-,N/A,,Overcast,230,2013-05-23 08:15:00
4:35 AM,59.0,53.6,82,30.03,10.0,SW,3.5,-,N/A,,Overcast,220,2013-05-23 08:35:00
4:55 AM,57.2,53.6,88,30.03,10.0,West,6.9,-,N/A,,Overcast,260,2013-05-23 08:55:00
5:15 AM,57.2,55.4,94,30.03,10.0,WSW,9.2,-,0.01,,Drizzle,240,2013-05-23 09:15:00
5:35 AM,59.0,53.6,82,30.03,10.0,SSW,6.9,-,0.01,,Light Drizzle,210,2013-05-23 09:35:00
5:55 AM,57.2,55.4,94,30.03,10.0,SSW,4.6,-,N/A,Rain,Rain,210,2013-05-23 09:55:00
6:15 AM,57.2,55.4,94,30.03,10.0,SW,9.2,-,N/A,,Drizzle,230,2013-05-23 10:15:00
6:35 AM,57.2,55.4,94,30.03,10.0,SW,9.2,-,0.01,Rain,Rain,230,2013-05-23 10:35:00
6:55 AM,57.2,55.4,94,30.03,10.0,SW,8.1,-,0.01,Rain,Light Rain,230,2013-05-23 10:55:00
7:15 AM,59.0,55.4,88,30.04,10.0,SW,9.2,-,0.01,,Light Drizzle,230,2013-05-23 11:15:00
7:35 AM,57.2,55.4,94,30.04,10.0,SW,10.4,-,0.01,,Mostly Cloudy,230,2013-05-23 11:35:00
7:55 AM,59.0,55.4,88,30.04,10.0,WSW,10.4,-,N/A,,Mostly Cloudy,240,2013-05-23 11:55:00
8:15 AM,60.8,57.2,88,30.04,10.0,WSW,11.5,-,N/A,,Overcast,240,2013-05-23 12:15:00
8:35 AM,59.0,57.2,94,30.04,10.0,WSW,12.7,-,N/A,,Overcast,250,2013-05-23 12:35:00
8:55 AM,60.8,57.2,88,30.05,10.0,WSW,11.5,-,N/A,,Overcast,250,2013-05-23 12:55:00
9:15 AM,60.8,57.2,88,30.05,10.0,WSW,11.5,-,N/A,,Overcast,250,2013-05-23 13:15:00
9:35 AM,60.8,57.2,88,30.05,10.0,West,11.5,-,N/A,,Overcast,260,2013-05-23 13:35:00
9:55 AM,60.8,59.0,94,30.04,10.0,West,10.4,-,N/A,,Overcast,260,2013-05-23 13:55:00
10:15 AM,60.8,59.0,94,30.04,10.0,West,12.7,16.1,N/A,,Overcast,270,2013-05-23 14:15:00
10:35 AM,60.8,59.0,94,30.05,10.0,West,6.9,16.1,N/A,,Overcast,270,2013-05-23 14:35:00
10:55 AM,62.6,60.8,94,30.05,10.0,West,9.2,-,N/A,,Mostly Cloudy,270,2013-05-23 14:55:00
11:15 AM,60.8,59.0,94,30.05,10.0,West,5.8,-,N/A,,Mostly Cloudy,260,2013-05-23 15:15:00
11:35 AM,62.6,59.0,88,30.05,10.0,WSW,8.1,-,N/A,,Mostly Cloudy,250,2013-05-23 15:35:00
11:55 AM,62.6,57.2,82,30.05,10.0,West,11.5,-,N/A,,Scattered Clouds,260,2013-05-23 15:55:00
12:15 PM,64.4,57.2,77,30.04,10.0,WSW,9.2,-,N/A,,Scattered Clouds,250,2013-05-23 16:15:00
12:35 PM,62.6,57.2,82,30.04,10.0,WSW,10.4,-,N/A,,Mostly Cloudy,250,2013-05-23 16:35:00
12:55 PM,64.4,57.2,77,30.04,10.0,SW,11.5,-,N/A,,Scattered Clouds,230,2013-05-23 16:55:00
1:15 PM,64.4,57.2,77,30.03,10.0,WSW,10.4,-,N/A,,Clear,250,2013-05-23 17:15:00
1:35 PM,64.4,57.2,77,30.02,5.0,West,9.2,-,N/A,,Haze,270,2013-05-23 17:35:00
1:55 PM,66.2,57.2,73,30.01,10.0,WSW,10.4,-,N/A,,Scattered Clouds,240,2013-05-23 17:55:00
2:15 PM,68.0,59.0,73,30.00,10.0,South,4.6,-,N/A,,Scattered Clouds,190,2013-05-23 18:15:00
2:35 PM,68.0,57.2,68,30.00,10.0,WSW,8.1,-,N/A,,Scattered Clouds,250,2013-05-23 18:35:00
2:55 PM,64.4,57.2,77,30.00,5.0,West,18.4,24.2,0.04,Thunderstorm,Unknown,270,2013-05-23 18:55:00
3:15 PM,60.8,57.2,88,29.98,10.0,WSW,15.0,18.4,0.14,Rain,Light Rain,240,2013-05-23 19:15:00
3:35 PM,64.4,60.8,88,29.98,10.0,WSW,10.4,-,0.14,,Scattered Clouds,250,2013-05-23 19:35:00
3:55 PM,66.2,60.8,83,29.97,10.0,WSW,10.4,-,N/A,Thunderstorm,Mostly Cloudy,250,2013-05-23 19:55:00
4:15 PM,66.2,57.2,73,29.96,10.0,WSW,10.4,-,N/A,,Scattered Clouds,240,2013-05-23 20:15:00
4:35 PM,68.0,55.4,64,29.96,10.0,West,6.9,-,N/A,,Clear,260,2013-05-23 20:35:00
4:55 PM,69.8,55.4,60,29.96,10.0,WSW,9.2,-,N/A,,Scattered Clouds,240,2013-05-23 20:55:00
5:15 PM,66.2,55.4,68,29.96,10.0,SW,6.9,-,N/A,,Scattered Clouds,230,2013-05-23 21:15:00
5:35 PM,69.8,55.4,60,29.96,10.0,WSW,6.9,-,N/A,,Mostly Cloudy,240,2013-05-23 21:35:00
5:55 PM,69.8,55.4,60,29.95,10.0,SSW,6.9,-,N/A,,Scattered Clouds,210,2013-05-23 21:55:00
6:15 PM,69.8,57.2,64,29.95,10.0,South,6.9,-,N/A,,Scattered Clouds,180,2013-05-23 22:15:00
6:35 PM,66.2,60.8,83,29.95,10.0,SW,4.6,-,N/A,,Mostly Cloudy,220,2013-05-23 22:35:00
6:55 PM,59.0,53.6,82,29.95,10.0,West,28.8,36.8,N/A,Rain,Rain,280,2013-05-23 22:55:00
7:15 PM,55.4,53.6,94,29.94,7.0,West,19.6,27.6,0.01,Rain-Thunderstorm,Light Thunderstorms and Rain,280,2013-05-23 23:15:00
7:35 PM,55.4,53.6,94,29.92,10.0,WNW,18.4,27.6,0.01,Thunderstorm,Mostly Cloudy,290,2013-05-23 23:35:00
7:55 PM,55.4,53.6,94,29.93,10.0,West,19.6,26.5,N/A,Thunderstorm,Mostly Cloudy,270,2013-05-23 23:55:00
8:15 PM,55.4,53.6,94,29.94,10.0,West,18.4,26.5,N/A,,Scattered Clouds,280,2013-05-24 00:15:00
8:35 PM,55.4,51.8,88,29.94,10.0,West,20.7,25.3,N/A,,Scattered Clouds,270,2013-05-24 00:35:00
8:55 PM,55.4,53.6,94,29.95,10.0,West,18.4,24.2,N/A,,Scattered Clouds,280,2013-05-24 00:55:00
9:15 PM,55.4,53.6,94,29.96,10.0,West,17.3,-,N/A,,Scattered Clouds,280,2013-05-24 01:15:00
9:35 PM,55.4,53.6,94,29.96,10.0,West,13.8,19.6,N/A,,Scattered Clouds,280,2013-05-24 01:35:00
9:55 PM,55.4,53.6,94,29.96,10.0,West,17.3,24.2,N/A,,Mostly Cloudy,270,2013-05-24 01:55:00
10:15 PM,55.4,53.6,94,29.98,10.0,West,15.0,24.2,N/A,,Scattered Clouds,280,2013-05-24 02:15:00
10:35 PM,55.4,53.6,94,29.99,10.0,West,10.4,-,N/A,,Scattered Clouds,270,2013-05-24 02:35:00
10:55 PM,55.4,53.6,94,29.99,10.0,West,11.5,-,N/A,,Mostly Cloudy,280,2013-05-24 02:55:00
11:15 PM,55.4,53.6,94,29.98,10.0,West,11.5,-,N/A,,Scattered Clouds,270,2013-05-24 03:15:00
11:35 PM,55.4,53.6,94,29.97,10.0,West,11.5,16.1,N/A,,Mostly Cloudy,280,2013-05-24 03:35:00
11:55 PM,55.4,53.6,94,29.97,10.0,West,15.0,-,N/A,,Overcast,280,2013-05-24 03:55:00